sat.trackr.live / text

‹ back to catalog

STARLINK-35308

NORAD 65848 · 2025-221AB

PAYLOAD ACTIVE UNKNOWN

§ Identity

Operator
Country
US
Launch date
2025-09-29
Launch site
AFWTR
Launch vehicle
Mass (kg)
RCS (m²)

Purposes: comms

External: N2YO · Heavens-Above · Gunter

§ Orbital elements

Epoch: 2026-09-20T07:09:45.496800Z

Period
93.85 min
Inclination
53.1585°
Eccentricity
0.0001385
Mean motion
15.34398732 rev/d
Perigee alt
461.8 km
Apogee alt
463.7 km
Semi-major
6,840.8 km
B*
1.6670e-4
RAAN
260.5174°
Arg perigee
71.0515°
Mean anomaly
289.0638°
Rev number
5,593

§ Raw data

STARLINK-353081 65848U 25221AB  26263.29844325  .00005260  00000+0  16670-3 0  99942 65848  53.1585 260.5174 0001385  71.0515 289.0638 15.34398732 55934

JSON: /api/v1/satellites/65848 · /tle

For live sub-satellite position, see the globe view (requires WebGL).

§ Visibility from observer

Set your observer location to see the next 7 days of passes ≥ 10°. The values pass through the URL so the page stays shareable.

No JS? Fill the form by hand. The geolocation button needs JavaScript.